Regional Weather Roundup
Issued by NWS

Home | Current Version | Previous Version | Text Only | Print | Product List | Glossary Off
Versions: 1 2 3 4 5 6 7 8 9 10 11 12 13 14 15 16 17 18 19 20 21 22 23 24 25 26 27 28 29 30 31 32 33 34 35 36 37 38 39 40 41 42 43 44 45 46 47 48 49 50

000
ASUS45 KPSR 240810
RWRAZ

ARIZONA REGIONAL HOURLY WEATHER ROUNDUP
NATIONAL WEATHER SERVICE PHOENIX AZ
100 AM MST THU JUL 24 2014

NOTE: FAIR INDICATES FEW OR NO CLOUDS BELOW 12,000 FEET WITH NO
SIGNIFICANT WEATHER AND/OR OBSTRUCTIONS TO VISIBILITY.

AZZ001>003-036-240900-
NORTHWEST ARIZONA

CITY           SKY/WX    TMP DP  RH WIND       PRES   REMARKS
BULLHEAD CITY  CLEAR     93  32  11 CALM      29.77S
KINGMAN        PTCLDY    79  32  18 S7        30.02S
$$

AZZ004>008-015-016-018-240900-
NORTH CENTRAL ARIZONA

CITY           SKY/WX    TMP DP  RH WIND       PRES   REMARKS
GRAND CANYON   MOCLDY    74  47  38 S8        30.33F
WILLIAMS       PTCLDY    70  50  49 SE13G18   30.41S
PRESCOTT       MOCLDY    80  52  37 S12       30.21S
FLAGSTAFF      CLOUDY    67  50  54 CALM      30.39F
PAYSON         CLOUDY    73  57  56 CALM      30.26S
PAGE           CLOUDY    87  50  27 SE20G29   30.09S
$$

AZZ009>014-017-240900-
NORTHEAST ARIZONA

CITY           SKY/WX    TMP DP  RH WIND       PRES   REMARKS
WINSLOW        CLOUDY    74  61  63 E6        30.23S
SAINT JOHNS    MOCLDY    68  59  73 SE7       30.30F
WINDOW ROCK    MOCLDY    63  50  62 CALM      30.40F
SHOW LOW       CLOUDY    66  52  59 CALM      30.36F
$$

AZZ023-240900-
GREATER PHOENIX AREA

CITY           SKY/WX    TMP DP  RH WIND       PRES   REMARKS
PHOENIX        CLOUDY    97  62  31 E14       29.86F
BUCKEYE          N/A     97  57  26 E17       29.84S
LUKE AFB       NOT AVBL
DEER VALLEY    MOCLDY    93  60  33 NE13G21   29.89S
SCOTTSDALE     CLOUDY    90  65  43 NE14      29.91F
MESA-GATEWAY   CLOUDY    95  55  26 N8        29.92F
$$

AZZ027-028-240900-
SOUTHWEST MARICOPA COUNTY AND PINAL COUNTY

CITY           SKY/WX    TMP DP  RH WIND       PRES   REMARKS
CASA GRANDE    CLOUDY    93  59  31 NE7       29.91S
$$

AZZ503-504-507>509-240900-
SOUTHEAST ARIZONA

CITY           SKY/WX    TMP DP  RH WIND       PRES   REMARKS
TUCSON         MOCLDY    85  62  46 SE8       30.01F
DAVIS-MONTHAN  CLOUDY    84  62  47 S6        30.00F
SIERRA VISTA   PTCLDY    77  55  47 SW3       30.18F
DOUGLAS        PTCLDY    73  52  47 VRB3      30.13F
SAFFORD        PTCLDY    83  58  42 E9        30.07S
$$

AZZ020-021-025-026-031-240900-
SOUTHWEST ARIZONA

CITY           SKY/WX    TMP DP  RH WIND       PRES   REMARKS
YUMA           NOT AVBL
$$

CAZ031-033-041-043-047-048-061-240900-
SOUTHERN CALIFORNIA

CITY           SKY/WX    TMP DP  RH WIND       PRES   REMARKS
DOWNTOWN L.A.  CLEAR     69  61  75 CALM      29.89S
L.A. AIRPORT   CLEAR     68  61  78 CALM      29.89F
SAN DIEGO      PTCLDY    70  65  84 NW3       29.91F
BURBANK        CLEAR     73  58  59 NE3       29.90F
ONTARIO        CLEAR     75  55  49 CALM      29.91F
RIVERSIDE      CLEAR     74  54  49 CALM      29.91F
PALM SPRINGS   CLEAR     91  44  19 CALM      29.78F
EL CENTRO NAS  CLEAR     92  45  19 W8        29.70F
IMPERIAL       CLEAR     92  46  20 NW7       29.70F
BLYTHE         CLEAR    101  31   8 W6        29.74S
NEEDLES        CLEAR     97  29   9 CALM      29.78R
$$

NVZ020-UTZ003-240900-
SOUTHERN NEVADA-UTAH

CITY           SKY/WX    TMP DP  RH WIND       PRES   REMARKS
LAS VEGAS      CLEAR     93  27   9 SW9       29.83S
SALT LAKE CITY PTCLDY    86  43  22 S18G29    29.95R
$$

NMZ009-TXZ055-240900-
NEW MEXICO-WEST TEXAS

CITY           SKY/WX    TMP DP  RH WIND       PRES   REMARKS
ALBUQUERQUE    PTCLDY    75  49  39 E6        30.31F
EL PASO        CLEAR     79  51  37 SE6       30.18S
$$


........................KEY........................
SKY/WX - SKY CONDITION/WEATHER
TMP    - TEMPERATURE IN FAHRENHEIT
DP     - DEW POINT IN FAHRENHEIT
RH     - RELATIVE HUMIDITY IN PERCENT
WIND   - DIRECTION AND SPEED IN MILES PER HOUR (MPH)
VRB    - VARIABLE WIND DIRECTION
PRES   - MEAN SEA LEVEL PRESSURE IN INCHES OF MERCURY
         F - FALLING PRESSURE   R - RISING PRESSURE
         S - STEADY PRESSURE
VSB    - VISIBILITY IN MILES
HX     - HEAT INDEX IN FAHRENHEIT
WCI    - WIND CHILL INDEX IN FAHRENHEIT
TC     - TEMPERATURE IN CELSIUS WHICH IS ALSO KNOWN AS
         TEMPERATURE IN CENTIGRADE
AFB    - AIR FORCE BASE
         LUKE AFB IS LUKE AIR FORCE BASE
         DAVIS-MONTHAN IS DAVIS-MONTHAN AIR FORCE BASE
NAS    - NAVAL AIR STATION
         EL CENTRO NAS IS EL CENTRO NAVAL AIR STATION
N/A    - NOT AVAILABLE


USA.gov is the U.S. government's official web portal to all federal, state and local government web resources and services.